| time (UTC) | temp C | wind direction | speed KPH | gust KPH | rain 1hr cm | rain 24hr cm | rain mn cm | humidity % | barometer mb |
| 20260504081538 | 7 | 0 | 0.0 | 3.2 | 0.00 | 0.00 | 0.00 | 70 | 1010.4 |
| 20260504044542 | 6 | 0 | 0.0 | 1.6 | 0.00 | 0.00 | 0.00 | 73 | 1011.3 |
| 20260504043048 | 6 | 0 | 0.0 | 1.6 | 0.00 | 0.00 | 0.00 | 74 | 1011.7 |
| 20260504041542 | 6 | 0 | 0.0 | 1.6 | 0.00 | 0.00 | 0.00 | 73 | 1011.6 |
| 20260504040042 | 6 | 250 | 0.0 | 3.2 | 0.00 | 0.00 | 0.00 | 73 | 1011.4 |
| 20260504034544 | 5 | 0 | 0.0 | 0.0 | 0.00 | 0.00 | 0.00 | 72 | 1011.2 |
| 20260504033038 | 5 | 0 | 0.0 | 1.6 | 0.00 | 0.00 | 0.00 | 72 | 1011.0 |
| 20260504031541 | 5 | 0 | 0.0 | 3.2 | 0.00 | 0.00 | 0.00 | 72 | 1011.1 |
| 20260504030043 | 5 | 0 | 0.0 | 3.2 | 0.00 | 0.00 | 0.00 | 70 | 1011.1 |
| 20260504024546 | 5 | 0 | 0.0 | 1.6 | 0.00 | 0.00 | 0.00 | 69 | 1010.9 |
| 20260504023040 | 5 | 0 | 0.0 | 3.2 | 0.00 | 0.00 | 0.00 | 67 | 1010.9 |
| 20260504021540 | 6 | 0 | 0.0 | 1.6 | 0.00 | 0.00 | 0.00 | 65 | 1011.1 |
| 20260504020041 | 6 | 0 | 0.0 | 1.6 | 0.00 | 0.00 | 0.00 | 63 | 1011.2 |
| 20260504014542 | 7 | 250 | 0.0 | 3.2 | 0.00 | 0.00 | 0.00 | 58 | 1011.1 |
| 20260504013054 | 8 | 0 | 0.0 | 0.0 | 0.00 | 0.00 | 0.00 | 54 | 1011.1 |
| 20260504011539 | 8 | 0 | 0.0 | 0.0 | 0.00 | 0.00 | 0.00 | 49 | 1010.9 |
| 20260504010041 | 10 | 0 | 0.0 | 3.2 | 0.00 | 0.00 | 0.00 | 49 | 1010.7 |
| 20260504004538 | 10 | 0 | 0.0 | 3.2 | 0.00 | 0.00 | 0.00 | 45 | 1010.6 |
| 20260504003037 | 11 | 0 | 0.0 | 6.4 | 0.00 | 0.00 | 0.00 | 43 | 1010.3 |
| 20260504001546 | 11 | 212 | 1.6 | 8.0 | 0.00 | 0.00 | 0.00 | 42 | 1010.3 |
| 20260504000041 | 11 | 208 | 1.6 | 6.4 | 0.00 | 0.00 | 0.00 | 41 | 1010.3 |
| 20260503234539 | 11 | 248 | 3.2 | 11.3 | 0.00 | 0.00 | 0.00 | 39 | 1010.0 |
| 20260503233037 | 11 | 261 | 3.2 | 9.7 | 0.00 | 0.00 | 0.00 | 38 | 1009.8 |
| 20260503231537 | 12 | 257 | 1.6 | 9.7 | 0.00 | 0.00 | 0.00 | 36 | 1009.4 |
| 20260503230041 | 12 | 240 | 3.2 | 11.3 | 0.00 | 0.00 | 0.00 | 35 | 1009.3 |
| 20260503224542 | 12 | 234 | 3.2 | 11.3 | 0.00 | 0.00 | 0.00 | 35 | 1009.0 |
| 20260503223135 | 12 | 260 | 6.4 | 14.5 | 0.00 | 0.00 | 0.00 | 33 | 1009.2 |
| 20260503221542 | 12 | 227 | 6.4 | 12.9 | 0.00 | 0.00 | 0.00 | 31 | 1009.2 |
| 20260503220040 | 12 | 273 | 6.4 | 14.5 | 0.00 | 0.00 | 0.00 | 30 | 1009.2 |
| 20260503214541 | 12 | 246 | 4.8 | 12.9 | 0.00 | 0.00 | 0.00 | 32 | 1009.3 |
| 20260503213043 | 12 | 165 | 4.8 | 11.3 | 0.00 | 0.00 | 0.00 | 30 | 1009.2 |
| 20260503211537 | 13 | 265 | 3.2 | 19.3 | 0.00 | 0.00 | 0.00 | 34 | 1009.2 |
| 20260503210042 | 13 | 245 | 4.8 | 14.5 | 0.00 | 0.00 | 0.00 | 32 | 1008.9 |
| 20260503204539 | 12 | 290 | 3.2 | 17.7 | 0.00 | 0.00 | 0.00 | 37 | 1009.3 |
| 20260503203041 | 12 | 265 | 3.2 | 11.3 | 0.00 | 0.00 | 0.00 | 41 | 1009.4 |
| 20260503201539 | 12 | 255 | 3.2 | 9.7 | 0.00 | 0.00 | 0.00 | 39 | 1009.6 |
| 20260503200038 | 11 | 139 | 3.2 | 14.5 | 0.00 | 0.00 | 0.00 | 40 | 1009.7 |
| 20260503194542 | 11 | 283 | 3.2 | 12.9 | 0.00 | 0.00 | 0.00 | 41 | 1009.9 |
| 20260503193048 | 11 | 265 | 3.2 | 16.1 | 0.00 | 0.00 | 0.00 | 43 | 1010.2 |
| 20260503191603 | 11 | 194 | 3.2 | 17.7 | 0.00 | 0.00 | 0.00 | 42 | 1010.1 |
| 20260503190037 | 10 | 221 | 4.8 | 12.9 | 0.00 | 0.00 | 0.00 | 44 | 1010.4 |
| 20260503184538 | 10 | 269 | 4.8 | 17.7 | 0.00 | 0.00 | 0.00 | 44 | 1010.7 |
| 20260503183038 | 10 | 223 | 4.8 | 14.5 | 0.00 | 0.00 | 0.00 | 45 | 1010.7 |
| 20260503181549 | 10 | 88 | 4.8 | 12.9 | 0.00 | 0.00 | 0.00 | 47 | 1010.7 |
| 20260503180054 | 9 | 247 | 6.4 | 17.7 | 0.00 | 0.00 | 0.00 | 47 | 1010.5 |
| 20260503174546 | 9 | 249 | 4.8 | 12.9 | 0.00 | 0.00 | 0.00 | 48 | 1010.7 |
| 20260503173038 | 9 | 238 | 4.8 | 11.3 | 0.00 | 0.00 | 0.00 | 47 | 1010.9 |
| 20260503171539 | 9 | 236 | 4.8 | 12.9 | 0.00 | 0.00 | 0.00 | 46 | 1010.8 |